Location: St. Andrews
(45.0670°N, 67.0330°W)
Time: 10:36:37
(UTC-04:00)

Amateur Radio Satellites - All Passes

Search period start: 23 January 2017 10:06
Search period end: 24 January 2017 10:06
Location: St. Andrews, 45.0670°N, 67.0330°W

Satellite Date Start Highest point End Downlink Frequencies (MHz)
Time Altitude Azimuth
ANTELSAT 23 Jan 10:15:41 10:19:45 44° 261° (W) 10:23:51 437.575/2403.000
DELFI C3 23 Jan 10:22:12 10:26:14 88° 276° (W) 10:30:11 145.870
JAS-2 23 Jan 10:33:26 10:38:52 82° 75° (ENE) 10:44:58 435.910
QB50P1 23 Jan 10:36:03 10:39:46 31° 68° (ENE) 10:43:28 145.935-145.965
PCSat 23 Jan 10:36:40 10:41:09 27° 251° (WSW) 10:45:37 145.827
CUBEBUG 2 23 Jan 10:37:20 10:37:44 10° 301° (WNW) 10:38:10 437.445
POLYITAN 1 23 Jan 10:41:07 10:44:56 35° 69° (ENE) 10:48:46 437.675
QB50P2 23 Jan 10:42:23 10:46:17 39° 70° (ENE) 10:50:12 145.880/145.840
FUNcube-1 23 Jan 10:43:00 10:46:17 21° 295° (WNW) 10:49:37 145.935
HUMSAT D 23 Jan 10:49:48 10:54:07 82° 285° (WNW) 10:58:26 437.325/437.525
ESTCUBE 1 23 Jan 10:58:43 11:01:46 18° 91° (E) 11:04:48 437.505/2401.250
POPSAT HIP 1 23 Jan 11:02:49 11:06:55 58° 73° (ENE) 11:11:04 437.405
ZACube-1 23 Jan 11:09:29 11:11:00 12° 300° (WNW) 11:12:32 437.345
DUCHIFAT 1 23 Jan 11:09:33 11:13:39 60° 73° (ENE) 11:17:46 145.980
NANOSAT C BR1 23 Jan 11:16:45 11:20:55 79° 74° (ENE) 11:25:07 145.865
RS-15 23 Jan 11:19:05 11:25:34 16° 266° (W) 11:31:57 29.354- 29.394
BY70-1 23 Jan 11:24:07 11:27:19 57° 100° (E) 11:30:17 436.1900
BUGSAT 1 23 Jan 11:31:25 11:35:09 37° 70° (ENE) 11:38:52 437.445
CUBEBUG 1 23 Jan 11:33:56 11:37:24 23° 94° (E) 11:40:49 437.445
CUSAT 1 23 Jan 11:37:13 11:39:08 11° 47° (NE) 11:41:01 437.405
Cosmos 2491 23 Jan 11:37:55 11:44:44 24° 61° (ENE) 11:51:32 435.465 / 435.565
AISAT 23 Jan 11:58:44 12:02:28 27° 95° (E) 12:06:12 437.250
Oscar 19 23 Jan 12:05:46 12:10:14 30° 65° (ENE) 12:14:43 437.125/150
QB50P1 23 Jan 12:12:05 12:15:32 25° 265° (W) 12:19:01 145.935-145.965
POLYITAN 1 23 Jan 12:17:33 12:20:49 22° 266° (W) 12:24:06 437.675
QB50P2 23 Jan 12:19:07 12:22:14 20° 267° (W) 12:25:21 145.880/145.840
JAS-2 23 Jan 12:22:02 12:24:57 14° 275° (W) 12:28:01 435.910
VELOX 1 23 Jan 12:31:31 12:35:51 56° 101° (E) 12:40:09 145.980
ESTCUBE 1 23 Jan 12:34:28 12:38:52 51° 289° (WNW) 12:43:14 437.505/2401.250
SPROUT 23 Jan 12:35:53 12:40:00 48° 99° (E) 12:44:08 437.525
POPSAT HIP 1 23 Jan 12:41:01 12:43:05 13° 270° (W) 12:45:09 437.405
Gurwin Techsat 1B 23 Jan 12:45:32 12:50:22 37° 67° (ENE) 12:55:13 435.225
UKube-1 23 Jan 12:45:40 12:49:23 28° 96° (E) 12:53:05 .
DUCHIFAT 1 23 Jan 12:47:48 12:49:43 13° 270° (W) 12:51:39 145.980
50 SAT 23 Jan 12:51:31 12:55:06 78° 102° (ESE) 12:58:37 437.505
DX 1 23 Jan 12:52:50 12:57:01 45° 99° (E) 13:01:09 434.975-435.025
DANDE 23 Jan 12:56:46 13:01:27 16° 57° (ENE) 13:06:18 436.750
Cosmos 2504 23 Jan 12:58:15 13:00:58 12° 73° (ENE) 13:03:38 435.465 / 435.565
AIST 1 23 Jan 12:58:21 13:01:21 18° 86° (E) 13:04:21
ITAMSAT 1 23 Jan 12:59:10 13:00:49 11° 54° (NE) 13:02:27 435.822/435.867
AO-7 23 Jan 13:01:00 13:06:56 22° 47° (NE) 13:12:51 29.400- 29.500
BUGSAT 1 23 Jan 13:07:43 13:10:38 19° 267° (W) 13:13:34 437.445
CUBEBUG 1 23 Jan 13:09:48 13:13:45 35° 291° (WNW) 13:17:41 437.445
CUSAT 1 23 Jan 13:15:42 13:23:20 45° 70° (ENE) 13:30:18 437.405
AO-85 23 Jan 13:27:35 13:32:11 57° 121° (ESE) 13:36:28 145.980
Cosmos 2491 23 Jan 13:33:53 13:42:42 83° 264° (W) 13:51:31 435.465 / 435.565
AISAT 23 Jan 13:35:03 13:38:56 31° 293° (WNW) 13:42:47 437.250
YUBILEINY 23 Jan 13:40:59 13:49:15 47° 88° (E) 13:57:33 435.215
Oscar 19 23 Jan 13:44:33 13:49:24 39° 262° (W) 13:54:17 437.125/150
TISAT 1 23 Jan 13:52:07 13:56:09 46° 100° (E) 14:00:11 437.305
ITUPSAT 1 23 Jan 14:00:35 14:02:37 12° 89° (E) 14:04:40 437.325
VELOX 1 23 Jan 14:09:06 14:11:52 17° 298° (WNW) 14:14:39 145.980
SPROUT 23 Jan 14:12:42 14:15:35 18° 297° (WNW) 14:18:27 437.525
UKube-1 23 Jan 14:21:39 14:25:23 29° 293° (WNW) 14:29:07 .
Gurwin Techsat 1B 23 Jan 14:25:38 14:30:20 32° 264° (W) 14:35:05 435.225
DX 1 23 Jan 14:29:46 14:32:53 20° 297° (WNW) 14:35:59 434.975-435.025
BEESAT 23 Jan 14:31:24 14:35:23 26° 94° (E) 14:39:22 436.000
SWISSCUBE 23 Jan 14:33:15 14:37:28 30° 96° (E) 14:41:39 437.505
SO-50 23 Jan 14:34:10 14:37:32 20° 36° (NE) 14:40:52 436.795
ITAMSAT 1 23 Jan 14:34:13 14:39:22 72° 73° (ENE) 14:44:32 435.822/435.867
AIST 1 23 Jan 14:34:29 14:38:37 42° 284° (WNW) 14:42:45
DANDE 23 Jan 14:37:42 14:45:35 65° 76° (ENE) 14:53:52 436.750
Cosmos 2504 23 Jan 14:44:21 14:52:48 64° 93° (E) 15:00:42 435.465 / 435.565
AO-7 23 Jan 14:50:08 14:58:29 80° 68° (ENE) 15:06:54 29.400- 29.500
CUSAT 1 23 Jan 14:57:49 15:05:16 44° 270° (W) 15:12:02 437.405
BRITE-PL 23 Jan 15:02:15 15:05:37 16° 59° (ENE) 15:08:57 437.365/2234.400
AO-85 23 Jan 15:09:17 15:12:52 23° 318° (NW) 15:16:17 145.980
O/OREOS (USA 219) 23 Jan 15:15:26 15:19:46 44° 60° (ENE) 15:24:05 437.305
BEESAT 2 23 Jan 15:16:06 15:16:33 10° 108° (ESE) 15:17:01 435.950
TISAT 1 23 Jan 15:28:37 15:31:28 18° 296° (WNW) 15:34:17 437.305
Cosmos 2491 23 Jan 15:32:47 15:38:08 18° 285° (WNW) 15:43:30 435.465 / 435.565
MOZHAYETS 4 23 Jan 15:34:01 15:38:18 35° 97° (E) 15:42:32
ITUPSAT 1 23 Jan 15:36:11 15:41:02 79° 286° (WNW) 15:45:50 437.325
YUBILEINY 23 Jan 15:37:51 15:46:06 43° 289° (WNW) 15:54:28 435.215
KKS-1 23 Jan 15:50:06 15:52:47 16° 91° (E) 15:55:26 437.445
BEESAT 3 23 Jan 15:57:28 16:01:19 66° 122° (ESE) 16:05:15 437.485
HORYU 2 23 Jan 15:59:30 16:02:39 19° 63° (ENE) 16:05:48 437.375
BEESAT 23 Jan 16:08:50 16:13:16 39° 292° (WNW) 16:17:41 436.000
SWISSCUBE 23 Jan 16:10:56 16:15:15 34° 293° (WNW) 16:19:33 437.505
CUTE-I 23 Jan 16:12:23 16:14:50 13° 55° (NE) 16:17:17 437.470
SO-50 23 Jan 16:13:59 16:18:31 74° 237° (WSW) 16:22:57 436.795
ITAMSAT 1 23 Jan 16:16:23 16:19:22 15° 270° (W) 16:22:23 435.822/435.867
DANDE 23 Jan 16:21:03 16:27:55 33° 273° (W) 16:35:02 436.750
GOMX 1 23 Jan 16:25:08 16:29:49 33° 68° (ENE) 16:34:18 467.674
CUBESAT XI-V 23 Jan 16:29:26 16:33:01 21° 92° (E) 16:36:35 437.345
STARS 23 Jan 16:33:12 16:36:27 20° 93° (E) 16:39:41 437.465
LilacSat-2 23 Jan 16:33:47 16:35:30 13° 63° (ENE) 16:37:15 437.200
BRITE-PL 23 Jan 16:37:41 16:43:24 88° 257° (WSW) 16:48:58 437.365/2234.400
Cosmos 2504 23 Jan 16:39:22 16:46:40 31° 292° (WNW) 16:53:36 435.465 / 435.565
AO-7 23 Jan 16:45:40 16:52:06 24° 268° (W) 16:58:35 29.400- 29.500
HO-68 23 Jan 16:46:06 16:48:03 11° 43° (NE) 16:50:02 435.675
DOVE 4 23 Jan 16:47:44 16:51:21 22° 65° (ENE) 16:54:50 437.250
BEESAT 2 23 Jan 16:49:43 16:53:40 82° 306° (NW) 16:57:42 435.950
NOAA 15 23 Jan 16:50:43 16:55:11 28° 64° (ENE) 16:59:40 137.62
M-CUBED/EXP-1 PRIME 23 Jan 16:54:01 16:57:19 59° 107° (ESE) 17:00:31 437.505
Cubesat XI-IV 23 Jan 16:54:13 16:58:42 29° 64° (ENE) 17:03:12 437.490
O/OREOS (USA 219) 23 Jan 16:55:31 16:58:52 21° 258° (WSW) 17:02:12 437.305
MOZHAYETS 4 23 Jan 17:11:24 17:15:20 27° 294° (WNW) 17:19:14
ITUPSAT 1 23 Jan 17:16:34 17:18:03 11° 304° (NW) 17:19:31 437.325
KKS-1 23 Jan 17:25:21 17:29:41 55° 288° (WNW) 17:33:59 437.445
NOAA 18 23 Jan 17:26:26 17:31:15 33° 64° (ENE) 17:36:05 137.9125
AUBIESAT-1 23 Jan 17:27:39 17:30:58 61° 291° (WNW) 17:34:12 437.475
HORYU 2 23 Jan 17:34:37 17:38:52 47° 260° (W) 17:43:09 437.375
BEESAT 3 23 Jan 17:36:38 17:39:21 18° 322° (NW) 17:42:06 437.485
CUTE-I 23 Jan 17:48:45 17:54:03 82° 73° (ENE) 17:59:23 437.470
CINEMA 3 23 Jan 17:51:19 17:54:28 20° 65° (ENE) 17:57:35 145.822/145.860
GOMX 1 23 Jan 18:02:58 18:07:50 35° 264° (W) 18:12:28 467.674
LilacSat-2 23 Jan 18:05:38 18:09:20 56° 260° (W) 18:13:06 437.200
CUBESAT XI-V 23 Jan 18:06:09 18:10:37 44° 290° (WNW) 18:15:00 437.345
STARS 23 Jan 18:08:51 18:12:58 42° 291° (WNW) 18:17:05 437.465
CUTE 1.7 + AOD 2 23 Jan 18:10:59 18:13:56 19° 64° (ENE) 18:16:55 437.475
BRITE-PL 23 Jan 18:19:48 18:22:31 14° 273° (W) 18:25:12 437.365/2234.400
DOVE 4 23 Jan 18:24:04 18:28:47 47° 261° (W) 18:33:16 437.250
CUBEBUG 2 23 Jan 18:24:31 18:25:33 11° 60° (ENE) 18:26:36 437.445
HO-68 23 Jan 18:27:16 18:34:06 49° 65° (ENE) 18:40:56 435.675
NOAA 15 23 Jan 18:29:44 18:34:45 43° 262° (W) 18:39:50 137.62
BEESAT 2 23 Jan 18:29:59 18:32:07 14° 326° (NW) 18:34:17 435.950
GONETS M04 23 Jan 18:31:04 18:37:32 24° 79° (ENE) 18:44:02
M-CUBED/EXP-1 PRIME 23 Jan 18:31:16 18:31:19 10° 305° (NW) 18:31:22 437.505
Cubesat XI-IV 23 Jan 18:33:33 18:38:35 42° 262° (W) 18:43:39 437.490
CANX-2 23 Jan 18:39:44 18:43:43 40° 71° (ENE) 18:47:45 2200.000
COMPASS 1 23 Jan 18:43:02 18:45:56 18° 64° (ENE) 18:48:50 437.405
SEEDS 23 Jan 18:43:46 18:47:18 27° 67° (ENE) 18:50:54 437.485
UWE-3 23 Jan 18:45:00 18:46:24 11° 60° (ENE) 18:47:47 435.000/436.395/437.385
Cosmos 2499 23 Jan 18:48:26 18:55:46 37° 87° (E) 19:02:37 435.465 / 435.565
AAUSAT CUBESAT 2 23 Jan 18:50:48 18:53:32 17° 64° (ENE) 18:56:16 437.432
NOAA 18 23 Jan 19:06:42 19:11:48 39° 262° (W) 19:16:56 137.9125
AIST 2 23 Jan 19:18:54 19:23:01 77° 123° (ESE) 19:27:12 435.215
Oscar 11 23 Jan 19:23:47 19:26:29 16° 62° (ENE) 19:29:11 145.826/435.025
CINEMA 3 23 Jan 19:27:17 19:31:23 40° 262° (W) 19:35:24 145.822/145.860
CUTE-I 23 Jan 19:32:05 19:34:45 14° 272° (W) 19:37:26 437.470
STRAND 1 23 Jan 19:39:23 19:44:25 52° 100° (E) 19:49:26 437.568
CUTE 1.7 + AOD 2 23 Jan 19:45:21 19:49:26 46° 261° (W) 19:53:35 437.475
CUBEBUG 2 23 Jan 19:57:25 20:01:34 81° 258° (WSW) 20:05:44 437.445
FUNcube-1 23 Jan 20:03:31 20:07:24 40° 71° (ENE) 20:11:21 145.935
HO-68 23 Jan 20:15:24 20:21:57 37° 263° (W) 20:28:32 435.675
CANX-2 23 Jan 20:16:37 20:19:44 20° 268° (W) 20:22:54 2200.000
COMPASS 1 23 Jan 20:17:06 20:21:08 46° 261° (W) 20:25:13 437.405
UWE-3 23 Jan 20:18:07 20:22:15 76° 259° (W) 20:26:25 435.000/436.395/437.385
AO-85 23 Jan 20:18:08 20:20:07 13° 33° (NNE) 20:22:04 145.980
SEEDS 23 Jan 20:19:11 20:22:55 30° 265° (W) 20:26:41 437.485
AAUSAT CUBESAT 2 23 Jan 20:24:34 20:28:37 49° 261° (W) 20:32:43 437.432
GONETS M04 23 Jan 20:24:38 20:33:21 78° 280° (W) 20:42:11
ZACube-1 23 Jan 20:28:30 20:32:38 84° 78° (ENE) 20:36:51 437.345
Cosmos 2499 23 Jan 20:40:43 20:48:41 50° 285° (WNW) 20:56:07 435.465 / 435.565
Oscar 11 23 Jan 20:57:56 21:02:11 56° 260° (W) 21:06:28 145.826/435.025
AIST 2 23 Jan 20:59:10 21:02:00 17° 323° (NW) 21:04:52 435.215
DELFI C3 23 Jan 21:09:08 21:13:08 67° 74° (ENE) 21:17:09 145.870
STRAND 1 23 Jan 21:19:18 21:23:15 23° 298° (WNW) 21:27:12 437.568
RS-15 23 Jan 21:22:11 21:28:59 17° 95° (E) 21:35:53 29.354- 29.394
UNISAT 6 23 Jan 21:37:18 21:40:13 17° 91° (E) 21:43:10 437.425
BY70-1 23 Jan 21:40:32 21:42:35 16° 65° (ENE) 21:44:42 436.1900
FUNcube-1 23 Jan 21:40:57 21:43:51 18° 268° (W) 21:46:47 145.935
PRISM 23 Jan 21:41:13 21:45:14 50° 100° (E) 21:49:11 437.425
JAS-2 23 Jan 21:41:36 21:44:49 13° 84° (E) 21:48:07 435.910
HUMSAT D 23 Jan 21:42:30 21:46:37 87° 76° (ENE) 21:50:50 437.325/437.525
ISS 23 Jan 21:45:20 21:48:33 61° 146° (SE) 21:51:46 145.825
TIGRISAT 23 Jan 21:49:07 21:52:29 21° 93° (E) 21:55:53 435.000
AO-85 23 Jan 21:57:14 22:01:11 82° 54° (NE) 22:05:05 145.980
ESTCUBE 1 23 Jan 22:00:01 22:03:28 22° 64° (ENE) 22:06:55 437.505/2401.250
ANTELSAT 23 Jan 22:04:52 22:08:52 31° 96° (E) 22:12:54 437.575/2403.000
GONETS M04 23 Jan 22:26:08 22:31:50 19° 303° (WNW) 22:37:35
CUBEBUG 1 23 Jan 22:31:38 22:35:16 26° 66° (ENE) 22:38:54 437.445
BEESAT 3 23 Jan 22:36:14 22:38:10 13° 34° (NNE) 22:40:05 437.485
DELFI C3 23 Jan 22:47:22 22:48:23 11° 272° (W) 22:49:24 145.870
AISAT 23 Jan 22:57:42 23:01:37 32° 68° (ENE) 23:05:33 437.250
NANOSAT C BR1 23 Jan 23:01:27 23:02:31 11° 88° (E) 23:03:35 145.865
BY70-1 23 Jan 23:09:46 23:12:34 29° 264° (W) 23:15:30 436.1900
UNISAT 6 23 Jan 23:12:52 23:17:13 53° 288° (WNW) 23:21:39 437.425
PRISM 23 Jan 23:17:34 23:20:08 16° 298° (WNW) 23:22:42 437.425
ISS 23 Jan 23:22:13 23:25:12 32° 345° (NNW) 23:28:12 145.825
JAS-2 23 Jan 23:23:38 23:30:55 67° 102° (ESE) 23:38:42 435.910
TIGRISAT 23 Jan 23:25:07 23:29:20 43° 289° (WNW) 23:33:38 435.000
RS-15 23 Jan 23:27:15 23:38:59 70° 117° (ESE) 23:51:12 29.354- 29.394
50 SAT 23 Jan 23:27:46 23:31:08 40° 71° (ENE) 23:34:31 437.505
BEESAT 2 23 Jan 23:28:44 23:31:29 17° 38° (NE) 23:34:13 435.950
VELOX 1 23 Jan 23:30:17 23:34:40 64° 73° (ENE) 23:39:04 145.980
SPROUT 23 Jan 23:30:55 23:34:59 46° 72° (ENE) 23:39:04 437.525
ESTCUBE 1 23 Jan 23:35:39 23:39:59 44° 261° (W) 23:44:22 437.505/2401.250
PCSat 23 Jan 23:36:55 23:41:32 29° 110° (ESE) 23:46:10 145.827
ANTELSAT 23 Jan 23:41:39 23:45:29 29° 293° (WNW) 23:49:24 437.575/2403.000
UKube-1 23 Jan 23:41:51 23:45:39 31° 68° (ENE) 23:49:29 .
YUBILEINY 23 Jan 23:48:40 23:55:49 26° 63° (ENE) 00:02:51 435.215
DX 1 23 Jan 23:49:54 23:54:08 50° 71° (ENE) 23:58:22 434.975-435.025
QB50P1 23 Jan 23:53:44 23:57:47 43° 99° (E) 00:01:49 145.935-145.965
POLYITAN 1 23 Jan 23:59:05 00:03:13 50° 100° (E) 00:07:21 437.675
QB50P2 24 Jan 00:00:28 00:04:38 55° 100° (E) 00:08:48 145.880/145.840
CUBEBUG 1 24 Jan 00:07:25 00:11:25 33° 263° (W) 00:15:25 437.445
BEESAT 3 24 Jan 00:12:29 00:16:30 73° 55° (NE) 00:20:29 437.485
POPSAT HIP 1 24 Jan 00:20:57 00:25:12 84° 105° (ESE) 00:29:26 437.405
DUCHIFAT 1 24 Jan 00:26:53 00:31:06 85° 104° (ESE) 00:35:19 145.980
AISAT 24 Jan 00:34:17 00:38:04 27° 265° (W) 00:41:53 437.250
NANOSAT C BR1 24 Jan 00:34:31 00:38:44 73° 286° (WNW) 00:42:56 145.865
Cosmos 2504 24 Jan 00:35:39 00:41:19 23° 63° (ENE) 00:46:49 435.465 / 435.565
AIST 1 24 Jan 00:39:04 00:43:17 55° 79° (ENE) 00:47:27
Cosmos 2491 24 Jan 00:43:22 00:49:49 24° 79° (E) 00:56:19 435.465 / 435.565
TISAT 1 24 Jan 00:45:20 00:49:18 44° 71° (ENE) 00:53:16 437.305
BUGSAT 1 24 Jan 00:45:53 00:49:49 48° 100° (E) 00:53:46 437.445
ISS 24 Jan 00:59:30 01:02:17 25° 5° (N) 01:05:04 145.825
Gurwin Techsat 1B 24 Jan 01:01:42 01:03:31 12° 87° (E) 01:05:18 435.225
50 SAT 24 Jan 01:02:34 01:04:31 14° 268° (W) 01:06:29 437.505
BEESAT 2 24 Jan 01:05:41 01:09:44 74° 237° (WSW) 01:13:45 435.950
SPROUT 24 Jan 01:08:21 01:11:09 17° 268° (W) 01:13:59 437.525
ITUPSAT 1 24 Jan 01:08:40 01:12:04 20° 62° (ENE) 01:15:29 437.325
VELOX 1 24 Jan 01:09:17 01:11:33 14° 270° (W) 01:13:49 145.980
JAS-2 24 Jan 01:09:24 01:15:28 30° 299° (WNW) 01:21:56 435.910
UKube-1 24 Jan 01:18:02 01:21:42 26° 264° (W) 01:25:23 .
PCSat 24 Jan 01:19:30 01:24:43 47° 309° (NW) 01:29:58 145.827
DX 1 24 Jan 01:27:47 01:30:35 17° 268° (W) 01:33:26 434.975-435.025
QB50P1 24 Jan 01:30:14 01:33:15 19° 296° (WNW) 01:36:17 145.935-145.965
PHONESAT 2.4 24 Jan 01:31:48 01:33:28 18° 168° (SSE) 01:35:08 2401.200-2431.200
POLYITAN 1 24 Jan 01:35:52 01:38:39 17° 297° (WNW) 01:41:26 437.675
QB50P2 24 Jan 01:37:27 01:40:01 16° 298° (WNW) 01:42:34 145.880/145.840
BEESAT 24 Jan 01:39:29 01:43:50 37° 68° (ENE) 01:48:13 436.000
RS-15 24 Jan 01:40:47 01:52:20 48° 324° (NW) 02:04:13 29.354- 29.394
SWISSCUBE 24 Jan 01:41:23 01:45:52 43° 69° (ENE) 01:50:23 437.505
YUBILEINY 24 Jan 01:44:46 01:53:36 77° 265° (W) 02:02:19 435.215
BEESAT 3 24 Jan 01:52:02 01:53:32 12° 251° (WSW) 01:55:02 437.485
Oscar 19 24 Jan 01:53:35 01:58:44 63° 102° (ESE) 02:03:49 437.125/150
POPSAT HIP 1 24 Jan 01:59:08 02:00:19 11° 301° (WNW) 02:01:30 437.405
AIST 2 24 Jan 02:00:50 02:03:32 16° 36° (NE) 02:06:14 435.215
DUCHIFAT 1 24 Jan 02:05:02 02:06:08 11° 301° (WNW) 02:07:14 145.980
M-CUBED/EXP-1 PRIME 24 Jan 02:09:19 02:11:16 13° 57° (ENE) 02:13:10 437.505
AIST 1 24 Jan 02:18:15 02:20:21 14° 276° (W) 02:22:27
CUSAT 1 24 Jan 02:18:57 02:23:58 33° 85° (E) 02:30:05 437.405
BUGSAT 1 24 Jan 02:22:18 02:24:50 16° 297° (WNW) 02:27:23 437.445
TISAT 1 24 Jan 02:22:21 02:25:09 17° 268° (W) 02:27:57 437.305
Cosmos 2504 24 Jan 02:28:11 02:35:30 71° 266° (W) 02:42:35 435.465 / 435.565
ISS 24 Jan 02:36:00 02:39:13 57° 25° (NNE) 02:42:25 145.825
Cosmos 2491 24 Jan 02:36:58 02:45:41 78° 280° (W) 02:54:28 435.465 / 435.565
MOZHAYETS 4 24 Jan 02:37:35 02:41:53 41° 70° (ENE) 02:46:13
Gurwin Techsat 1B 24 Jan 02:38:52 02:44:14 86° 104° (ESE) 02:49:33 435.225
AUBIESAT-1 24 Jan 02:41:14 02:44:21 21° 61° (ENE) 02:47:20 437.475
ITUPSAT 1 24 Jan 02:44:50 02:49:30 54° 259° (W) 02:54:12 437.325
ITAMSAT 1 24 Jan 02:45:43 02:49:42 22° 93° (E) 02:53:39 435.822/435.867
KKS-1 24 Jan 02:49:56 02:53:07 20° 63° (ENE) 02:56:20 437.445
AO-7 24 Jan 02:50:39 02:56:53 23° 91° (E) 03:03:03 29.400- 29.500
PHONESAT 2.4 24 Jan 03:05:01 03:06:53 23° 185° (S) 03:08:45 2401.200-2431.200
PCSat 24 Jan 03:07:14 03:09:31 13° 331° (NNW) 03:11:49 145.827
BEESAT 24 Jan 03:17:42 03:21:41 26° 265° (W) 03:25:43 436.000
SWISSCUBE 24 Jan 03:20:04 03:23:49 23° 266° (W) 03:27:36 437.505
STARS 24 Jan 03:31:38 03:35:07 24° 65° (ENE) 03:38:37 437.465
Oscar 19 24 Jan 03:33:56 03:37:34 20° 300° (WNW) 03:41:10 437.125/150
CUBESAT XI-V 24 Jan 03:34:24 03:38:21 27° 66° (ENE) 03:42:18 437.345
AIST 2 24 Jan 03:38:21 03:42:37 89° 249° (WSW) 03:46:51 435.215
M-CUBED/EXP-1 PRIME 24 Jan 03:41:05 03:45:20 71° 252° (WSW) 03:49:18 437.505
YUBILEINY 24 Jan 03:44:00 03:48:49 16° 286° (WNW) 03:53:38 435.215
DANDE 24 Jan 03:48:47 03:52:56 49° 92° (E) 03:58:29 436.750
RS-15 24 Jan 03:58:30 04:08:55 30° 357° (N) 04:19:20 29.354- 29.394
CUSAT 1 24 Jan 04:00:04 04:05:35 46° 290° (WNW) 04:12:30 437.405
ISS 24 Jan 04:12:51 04:15:30 23° 222° (SW) 04:18:08 145.825
AUBIESAT-1 24 Jan 04:14:44 04:18:36 37° 256° (WSW) 04:22:14 437.475
MOZHAYETS 4 24 Jan 04:15:39 04:19:12 22° 267° (W) 04:22:48
Gurwin Techsat 1B 24 Jan 04:20:28 04:23:28 15° 303° (WNW) 04:26:28 435.225
ITAMSAT 1 24 Jan 04:24:23 04:29:28 53° 290° (WNW) 04:34:31 435.822/435.867
KKS-1 24 Jan 04:25:05 04:29:22 47° 260° (W) 04:33:40 437.445
Cosmos 2504 24 Jan 04:25:08 04:27:19 11° 287° (WNW) 04:29:29 435.465 / 435.565
GONETS M04 24 Jan 04:37:57 04:42:04 14° 51° (NE) 04:46:09
Cosmos 2491 24 Jan 04:38:33 04:44:10 18° 303° (WNW) 04:49:51 435.465 / 435.565
Cosmos 2499 24 Jan 04:38:52 04:41:29 12° 55° (NE) 04:44:03 435.465 / 435.565
PHONESAT 2.4 24 Jan 04:39:32 04:40:11 11° 201° (SSW) 04:40:51 2401.200-2431.200
BRITE-PL 24 Jan 04:41:56 04:45:49 25° 92° (E) 04:49:29 437.365/2234.400
AO-7 24 Jan 04:42:10 04:50:35 84° 291° (WNW) 04:58:55 29.400- 29.500
STARS 24 Jan 05:07:15 05:11:17 36° 262° (W) 05:15:21 437.465
CUBESAT XI-V 24 Jan 05:11:14 05:15:34 36° 263° (W) 05:19:57 437.345
AIST 2 24 Jan 05:20:10 05:20:23 10° 253° (WSW) 05:20:36 435.215
STRAND 1 24 Jan 05:21:17 05:23:49 14° 57° (ENE) 05:26:22 437.568
HORYU 2 24 Jan 05:23:32 05:27:20 27° 96° (E) 05:31:07 437.375
O/OREOS (USA 219) 24 Jan 05:29:56 05:33:58 34° 106° (ESE) 05:38:00 437.305
DANDE 24 Jan 05:32:40 05:36:16 21° 301° (WNW) 05:40:41 436.750
LilacSat-2 24 Jan 05:38:08 05:40:09 14° 90° (E) 05:42:11 437.200
GOMX 1 24 Jan 06:02:39 06:07:00 62° 100° (E) 06:11:08 467.674
CUTE-I 24 Jan 06:04:08 06:08:41 28° 94° (E) 06:13:12 437.470
RS-15 24 Jan 06:14:12 06:25:49 42° 31° (NNE) 06:37:08 29.354- 29.394
BRITE-PL 24 Jan 06:20:02 06:24:27 36° 292° (WNW) 06:28:32 437.365/2234.400
DOVE 4 24 Jan 06:20:54 06:24:45 36° 97° (E) 06:28:34 437.250
Cosmos 2499 24 Jan 06:29:10 06:36:17 66° 78° (ENE) 06:43:18 435.465 / 435.565
SO-50 24 Jan 06:30:37 06:34:17 23° 113° (ESE) 06:37:54 436.795
GONETS M04 24 Jan 06:32:23 06:41:09 60° 76° (ENE) 06:49:51
AO-7 24 Jan 06:36:08 06:42:13 23° 312° (NW) 06:48:17 29.400- 29.500
PCSat 24 Jan 06:40:30 06:42:05 11° 26° (NNE) 06:43:39 145.827
NOAA 15 24 Jan 06:42:25 06:47:42 61° 102° (ESE) 06:52:55 137.62
Cubesat XI-IV 24 Jan 06:48:13 06:53:33 66° 102° (ESE) 06:58:52 437.490
STRAND 1 24 Jan 06:57:09 07:02:15 90° 100° (E) 07:07:25 437.568
HORYU 2 24 Jan 06:59:54 07:03:53 33° 293° (WNW) 07:07:53 437.375
O/OREOS (USA 219) 24 Jan 07:09:33 07:13:23 28° 304° (NW) 07:17:15 437.305
LilacSat-2 24 Jan 07:10:58 07:14:43 49° 287° (WNW) 07:18:28 437.200
CINEMA 3 24 Jan 07:19:14 07:23:09 36° 97° (E) 07:27:09 145.822/145.860
NOAA 18 24 Jan 07:26:03 07:31:33 75° 104° (ESE) 07:37:00 137.9125
CUTE 1.7 + AOD 2 24 Jan 07:28:23 07:32:00 26° 94° (E) 07:35:35 437.475
HO-68 24 Jan 07:40:05 07:46:48 41° 98° (E) 07:53:28 435.675
GOMX 1 24 Jan 07:42:14 07:44:33 14° 300° (WNW) 07:46:50 467.674
CUTE-I 24 Jan 07:43:51 07:48:52 43° 292° (WNW) 07:53:53 437.470
CUBEBUG 2 24 Jan 07:46:31 07:49:36 18° 92° (E) 07:52:45 437.445
CANX-2 24 Jan 07:58:04 08:02:22 62° 101° (ESE) 08:06:36 2200.000
COMPASS 1 24 Jan 07:58:05 08:01:31 24° 94° (E) 08:04:55 437.405
DOVE 4 24 Jan 07:59:07 08:02:17 21° 295° (WNW) 08:05:23 437.250
SEEDS 24 Jan 08:00:26 08:04:25 38° 97° (E) 08:08:22 437.485
AAUSAT CUBESAT 2 24 Jan 08:05:08 08:08:25 22° 93° (E) 08:11:39 437.432
UWE-3 24 Jan 08:06:00 08:09:11 19° 92° (E) 08:12:24 435.000/436.395/437.385
SO-50 24 Jan 08:09:51 08:14:26 51° 311° (NW) 08:18:59 436.795
ZACube-1 24 Jan 08:15:43 08:18:15 15° 90° (E) 08:20:47 437.345
PCSat 24 Jan 08:21:58 08:27:04 39° 49° (NE) 08:32:09 145.827
NOAA 15 24 Jan 08:23:07 08:27:01 21° 300° (WNW) 08:30:53 137.62
Cosmos 2499 24 Jan 08:23:26 08:28:41 23° 279° (W) 08:33:55 435.465 / 435.565
RS-15 24 Jan 08:27:20 08:39:44 82° 239° (WSW) 08:51:38 29.354- 29.394
Cubesat XI-IV 24 Jan 08:29:21 08:33:07 20° 300° (WNW) 08:36:54 437.490
GONETS M04 24 Jan 08:29:54 08:37:27 33° 277° (W) 08:45:01
PRISM 24 Jan 08:32:03 08:36:02 47° 71° (ENE) 08:40:03 437.425
UNISAT 6 24 Jan 08:38:26 08:41:22 18° 63° (ENE) 08:44:19 437.425
STRAND 1 24 Jan 08:40:26 08:42:09 12° 273° (W) 08:43:53 437.568
Oscar 11 24 Jan 08:43:31 08:47:01 23° 93° (E) 08:50:30 145.826/435.025
TIGRISAT 24 Jan 08:50:01 08:53:17 22° 65° (ENE) 08:56:35 435.000
CINEMA 3 24 Jan 08:56:50 09:00:07 22° 294° (WNW) 09:03:29 145.822/145.860
CUTE 1.7 + AOD 2 24 Jan 09:04:02 09:07:51 31° 291° (WNW) 09:11:37 437.475
ANTELSAT 24 Jan 09:05:43 09:09:32 33° 68° (ENE) 09:13:22 437.575/2403.000
NOAA 18 24 Jan 09:07:59 09:11:36 18° 302° (WNW) 09:15:12 137.9125
CUBEBUG 2 24 Jan 09:22:15 09:26:26 47° 288° (WNW) 09:30:45 437.445
FUNcube-1 24 Jan 09:24:48 09:29:14 69° 102° (ESE) 09:33:43 145.935
HUMSAT D 24 Jan 09:25:26 09:27:21 13° 89° (E) 09:29:17 437.325/437.525
HO-68 24 Jan 09:27:51 09:34:33 44° 297° (WNW) 09:41:13 435.675
COMPASS 1 24 Jan 09:33:21 09:37:06 32° 291° (WNW) 09:40:51 437.405
CANX-2 24 Jan 09:35:19 09:37:43 15° 298° (WNW) 09:40:06 2200.000
SEEDS 24 Jan 09:36:37 09:39:53 22° 295° (WNW) 09:43:08 437.485
JAS-2 24 Jan 09:39:17 09:44:09 32° 62° (ENE) 09:49:32 435.910
AAUSAT CUBESAT 2 24 Jan 09:40:09 09:43:58 35° 290° (WNW) 09:47:45 437.432
UWE-3 24 Jan 09:41:38 09:45:50 46° 288° (WNW) 09:50:09 435.000/436.395/437.385
ZACube-1 24 Jan 09:50:32 09:54:53 60° 286° (WNW) 09:59:19 437.345
SO-50 24 Jan 09:53:52 09:55:58 13° 332° (NNW) 09:58:03 436.795
NANOSAT C BR1 24 Jan 09:55:42 09:57:09 12° 60° (ENE) 09:58:37 145.865
